Weather History for Billings, MT

Change the Weather History Date:

Monday, February 11, 2013

  Actual Average Record
Temperature  
Mean Temperature 22 °F 30 °F  
Max Temperature 30 °F 39 °F 68 °F (1961)
Min Temperature 13 °F 20 °F -15 °F (1936)
Degree Days  
Heating Degree Days 43 35  
Month to date heating degree days 330 398  
Since 1 July heating degree days 4009 4394  
Cooling Degree Days 0 0  
Month to date cooling degree days 0 0  
Year to date cooling degree days 0 0  
Moisture  
Dew Point 11 °F    
Average Humidity 73    
Maximum Humidity 92    
Minimum Humidity 53    
Precipitation  
Precipitation 0.00 in 0.02 in 0.51 in (1978)
Month to date precipitation 0.08 0.17  
Year to date precipitation 0.67 0.65  
Snow  
Snow 0.00 in 0.20 in 8.00 in (1936)
Month to date snowfall 1.3 2.2  
Since 1 July snowfall 29.0 30.5  
Snow Depth 1.00 in    
Sea Level Pressure  
Sea Level Pressure 30.10 in    
Wind  
Wind Speed 21 mph (WSW)    
Max Wind Speed 29 mph    
Max Gust Speed 34 mph    
Visibility 10 miles    
Events      
T = Trace of Precipitation, MM = Missing Value Source: NWS Daily Summary

Daily Weather History Graph

Daily Weather History Graph

Search for Another Location

Airport:

Trip Planner

Search our weather history database for the weather conditions in past years. The results will help you decide how hot, cold, wet, or windy it might be!

Date:

Astronomy

Feb. 11, 2013 Rise Set
Actual Time 7:22 AM MST 5:35 PM MST
Civil Twilight 6:51 AM MST 6:06 PM MST
Nautical Twilight 6:16 AM MST 6:41 PM MST
Astronomical Twilight 5:41 AM MST 7:15 PM MST
Moon 7:40 AM MST (2/11) 7:45 PM MST (2/11)
Length of Visible Light 11h 15m
Length of Day
10h 13m
Waxing Crescent, 3% of the Moon is Illuminated
Feb 11
Waxing Crescent
Feb 17
First Quarter
Feb 25
Full
Mar 4
Last Quarter
Mar 11
New

Hourly Weather History & Observations

Time (MST) Temp. Windchill Dew Point Humidity Pressure Visibility Wind Dir Wind Speed Gust Speed Precip Events Conditions
12:53 AM 16.0 °F 4.4 °F 14.0 °F 92% 30.21 in 3.0 mi SW 9.2 mph - N/A   Scattered Clouds
1:53 AM 15.1 °F -0.1 °F 10.9 °F 84% 30.20 in 10.0 mi WSW 15.0 mph - N/A   Clear
2:53 AM 12.9 °F -3.9 °F 9.0 °F 84% 30.19 in 10.0 mi WSW 17.3 mph - N/A   Clear
3:53 AM 12.9 °F -5.7 °F 9.0 °F 84% 30.17 in 10.0 mi WSW 21.9 mph - N/A   Clear
4:53 AM 14.0 °F -3.9 °F 8.6 °F 79% 30.00 in 10.0 mi WSW 20.7 mph - N/A   Clear
5:53 AM 14.0 °F -3.9 °F 8.1 °F 77% 30.15 in 10.0 mi WSW 20.7 mph - N/A   Clear
6:53 AM 14.0 °F -5.1 °F 8.1 °F 77% 30.14 in 10.0 mi WSW 24.2 mph 31.1 mph N/A   Clear
7:53 AM 16.0 °F -2.1 °F 9.0 °F 74% 30.13 in 10.0 mi WSW 23.0 mph 29.9 mph N/A   Clear
8:53 AM 17.1 °F -0.3 °F 10.0 °F 74% 30.13 in 10.0 mi WSW 21.9 mph 27.6 mph N/A   Clear
9:53 AM 21.0 °F 3.9 °F 10.9 °F 65% 30.11 in 10.0 mi WSW 25.3 mph 34.5 mph N/A   Clear
10:53 AM 24.1 °F 9.0 °F 12.0 °F 60% 30.10 in 10.0 mi WSW 21.9 mph 32.2 mph N/A   Clear
11:53 AM 25.0 °F 9.5 °F 14.0 °F 63% 30.09 in 10.0 mi WSW 24.2 mph - N/A   Clear
12:53 PM 28.0 °F 13.3 °F 15.1 °F 58% 30.06 in 10.0 mi WSW 25.3 mph 33.4 mph N/A   Clear
1:53 PM 30.0 °F 15.7 °F 15.1 °F 54% 30.04 in 10.0 mi WSW 26.5 mph 33.4 mph N/A   Clear
2:53 PM 28.9 °F 14.5 °F 14.0 °F 54% 30.05 in 10.0 mi WSW 25.3 mph 31.1 mph N/A   Scattered Clouds
3:53 PM 28.9 °F 14.5 °F 14.0 °F 54% 30.04 in 10.0 mi WSW 25.3 mph - N/A   Scattered Clouds
4:53 PM 28.0 °F 13.6 °F 14.0 °F 56% 30.04 in 10.0 mi WSW 24.2 mph 32.2 mph N/A   Partly Cloudy
5:53 PM 25.0 °F 9.9 °F 12.9 °F 60% 30.04 in 10.0 mi WSW 23.0 mph - N/A   Partly Cloudy
6:53 PM 24.1 °F 8.7 °F 12.0 °F 60% 30.06 in 10.0 mi WSW 23.0 mph - N/A   Clear
7:53 PM 24.1 °F 9.0 °F 10.0 °F 55% 30.07 in 10.0 mi WSW 21.9 mph - N/A   Clear
8:53 PM 24.1 °F 9.4 °F 10.0 °F 55% 30.08 in 10.0 mi WSW 20.7 mph - N/A   Clear
9:53 PM 24.1 °F 10.1 °F 10.0 °F 55% 30.09 in 10.0 mi SW 18.4 mph - N/A   Scattered Clouds
10:53 PM 23.0 °F 8.7 °F 10.0 °F 58% 30.07 in 10.0 mi SW 18.4 mph - N/A   Partly Cloudy
11:53 PM 23.0 °F 9.2 °F 9.0 °F 55% 30.09 in 10.0 mi SW 17.3 mph - N/A   Clear